Time,TemperatureF,DewpointF,PressureIn,WindDirection,WindDirectionDegrees,WindSpeedMPH,WindSpeedGustMPH,Humidity,HourlyPrecipIn,Conditions,Clouds,dailyrainin,SoftwareType,DateUTC
2014-01-05 00:00:00,24.8,18.9,30.32,West,270,0.0,0.0,78,0.00,,---,0.00,VWS V13.01,2014-01-05 05:00:00,
2014-01-05 00:01:00,24.9,18.7,30.31,West,269,0.0,0.0,77,0.00,,---,0.00,VWS V13.01,2014-01-05 05:01:00,
2014-01-05 00:02:00,24.9,18.7,30.31,West,270,0.0,0.0,77,0.00,,---,0.00,VWS V13.01,2014-01-05 05:02:00,
2014-01-05 00:05:00,25.0,19.4,30.31,West,269,0.0,0.0,79,0.00,,---,0.00,VWS V13.01,2014-01-05 05:05:00,
2014-01-05 00:09:00,25.0,19.4,30.31,West,269,0.0,0.0,79,0.00,,---,0.00,VWS V13.01,2014-01-05 05:09:00,
2014-01-05 00:10:00,25.0,19.4,30.31,West,270,0.0,0.0,79,0.00,,---,0.00,VWS V13.01,2014-01-05 05:10:00,
2014-01-05 00:14:00,24.8,19.2,30.31,West,270,0.0,0.0,79,0.00,,---,0.00,VWS V13.01,2014-01-05 05:14:00,
2014-01-05 00:20:00,24.4,18.8,30.31,West,270,0.0,0.0,79,0.00,,---,0.00,VWS V13.01,2014-01-05 05:20:00,
2014-01-05 00:25:00,24.1,18.2,30.31,West,270,0.0,0.0,78,0.00,,---,0.00,VWS V13.01,2014-01-05 05:25:00,
2014-01-05 00:30:00,23.9,18.0,30.31,West,270,0.0,0.0,78,0.00,,---,0.00,VWS V13.01,2014-01-05 05:30:00,
2014-01-05 00:35:00,24.0,18.1,30.30,West,270,0.0,0.0,78,0.00,,---,0.00,VWS V13.01,2014-01-05 05:35:00,
2014-01-05 00:40:00,24.2,18.6,30.30,West,270,0.0,0.0,79,0.00,,---,0.00,VWS V13.01,2014-01-05 05:40:00,
2014-01-05 00:45:00,24.0,18.5,30.30,West,270,0.0,0.0,79,0.00,,---,0.00,VWS V13.01,2014-01-05 05:45:00,
2014-01-05 00:50:00,24.0,18.5,30.30,West,270,0.0,1.0,79,0.00,,---,0.00,VWS V13.01,2014-01-05 05:50:00,
2014-01-05 00:55:00,23.9,18.0,30.30,West,270,0.0,1.0,78,0.00,,---,0.00,VWS V13.01,2014-01-05 05:55:00,
2014-01-05 01:00:00,23.4,17.6,30.30,West,270,0.0,0.0,78,0.00,,---,0.00,VWS V13.01,2014-01-05 06:00:00,
2014-01-05 01:05:00,22.7,17.2,30.29,West,269,0.0,0.0,79,0.00,,---,0.00,VWS V13.01,2014-01-05 06:05:00,
2014-01-05 01:10:00,22.2,17.0,30.29,West,270,0.0,0.0,80,0.00,,---,0.00,VWS V13.01,2014-01-05 06:10:00,
2014-01-05 01:15:00,21.9,16.7,30.29,West,269,0.0,0.0,80,0.00,,---,0.00,VWS V13.01,2014-01-05 06:15:00,
2014-01-05 01:20:00,21.3,16.4,30.29,West,270,0.0,0.0,81,0.00,,---,0.00,VWS V13.01,2014-01-05 06:20:00,
2014-01-05 01:25:00,21.1,17.0,30.30,West,270,0.0,0.0,84,0.00,,---,0.00,VWS V13.01,2014-01-05 06:25:00,
2014-01-05 01:30:00,21.6,17.5,30.29,West,269,0.0,0.0,84,0.00,,---,0.00,VWS V13.01,2014-01-05 06:30:00,
2014-01-05 01:35:00,21.9,17.8,30.29,West,270,0.0,0.0,84,0.00,,---,0.00,VWS V13.01,2014-01-05 06:35:00,
2014-01-05 01:41:00,22.0,17.9,30.29,West,270,0.0,0.0,84,0.00,,---,0.00,VWS V13.01,2014-01-05 06:41:00,
2014-01-05 01:46:00,22.0,18.2,30.29,West,270,0.0,0.0,85,0.00,,---,0.00,VWS V13.01,2014-01-05 06:46:00,
2014-01-05 01:51:00,21.9,18.1,30.29,West,270,0.0,0.0,85,0.00,,---,0.00,VWS V13.01,2014-01-05 06:51:00,
2014-01-05 01:56:00,22.1,18.6,30.29,West,269,0.0,0.0,86,0.00,,---,0.00,VWS V13.01,2014-01-05 06:56:00,
2014-01-05 02:01:00,22.5,18.7,30.30,West,270,0.0,0.0,85,0.00,,---,0.00,VWS V13.01,2014-01-05 07:01:00,
2014-01-05 02:06:00,23.0,18.9,30.30,West,270,0.0,0.0,84,0.00,,---,0.00,VWS V13.01,2014-01-05 07:06:00,
2014-01-05 02:11:00,23.3,18.9,30.30,West,269,0.0,0.0,83,0.00,,---,0.00,VWS V13.01,2014-01-05 07:11:00,
2014-01-05 02:16:00,23.4,18.4,30.30,West,270,0.0,0.0,81,0.00,,---,0.00,VWS V13.01,2014-01-05 07:16:00,
2014-01-05 02:21:00,23.1,18.1,30.29,West,269,0.0,0.0,81,0.00,,---,0.00,VWS V13.01,2014-01-05 07:21:00,
2014-01-05 02:26:00,22.5,17.6,30.29,West,270,0.0,0.0,81,0.00,,---,0.00,VWS V13.01,2014-01-05 07:26:00,
2014-01-05 02:31:00,22.1,17.5,30.30,West,269,0.0,0.0,82,0.00,,---,0.00,VWS V13.01,2014-01-05 07:31:00,
2014-01-05 02:36:00,21.8,18.0,30.29,West,269,0.0,0.0,85,0.00,,---,0.00,VWS V13.01,2014-01-05 07:36:00,
2014-01-05 02:41:00,21.9,18.1,30.29,West,270,0.0,0.0,85,0.00,,---,0.00,VWS V13.01,2014-01-05 07:41:00,
2014-01-05 02:46:00,22.2,18.4,30.30,West,270,0.0,0.0,85,0.00,,---,0.00,VWS V13.01,2014-01-05 07:46:00,
2014-01-05 02:51:00,22.4,18.3,30.30,West,270,0.0,0.0,84,0.00,,---,0.00,VWS V13.01,2014-01-05 07:51:00,
2014-01-05 02:56:00,21.8,17.4,30.29,West,270,0.0,0.0,83,0.00,,---,0.00,VWS V13.01,2014-01-05 07:56:00,
2014-01-05 03:01:00,21.5,17.7,30.29,West,270,0.0,0.0,85,0.00,,---,0.00,VWS V13.01,2014-01-05 08:01:00,
2014-01-05 03:07:00,21.4,17.9,30.28,West,270,0.0,0.0,86,0.00,,---,0.00,VWS V13.01,2014-01-05 08:07:00,
2014-01-05 03:12:00,21.4,18.1,30.29,West,269,0.0,0.0,87,0.00,,---,0.00,VWS V13.01,2014-01-05 08:12:00,
2014-01-05 03:17:00,21.1,17.6,30.29,West,269,0.0,0.0,86,0.00,,---,0.00,VWS V13.01,2014-01-05 08:17:00,
2014-01-05 03:22:00,21.2,17.9,30.29,West,270,0.0,0.0,87,0.00,,---,0.00,VWS V13.01,2014-01-05 08:22:00,
2014-01-05 03:27:00,21.4,18.1,30.28,West,269,0.0,0.0,87,0.00,,---,0.00,VWS V13.01,2014-01-05 08:27:00,
2014-01-05 03:32:00,21.5,18.2,30.28,West,270,0.0,0.0,87,0.00,,---,0.00,VWS V13.01,2014-01-05 08:32:00,
2014-01-05 03:37:00,21.7,18.4,30.27,West,269,0.0,0.0,87,0.00,,---,0.00,VWS V13.01,2014-01-05 08:37:00,
2014-01-05 03:42:00,21.8,18.3,30.27,West,270,0.0,0.0,86,0.00,,---,0.00,VWS V13.01,2014-01-05 08:42:00,
2014-01-05 03:47:00,21.6,18.1,30.27,West,269,0.0,0.0,86,0.00,,---,0.00,VWS V13.01,2014-01-05 08:47:00,
2014-01-05 03:52:00,21.6,18.3,30.27,West,270,0.0,0.0,87,0.00,,---,0.00,VWS V13.01,2014-01-05 08:52:00,
2014-01-05 03:57:00,21.7,18.7,30.27,West,270,0.0,0.0,88,0.00,,---,0.00,VWS V13.01,2014-01-05 08:57:00,
2014-01-05 04:02:00,21.8,18.8,30.27,West,269,0.0,0.0,88,0.00,,---,0.00,VWS V13.01,2014-01-05 09:02:00,
2014-01-05 04:07:00,22.0,19.3,30.27,West,269,0.0,0.0,89,0.00,,---,0.00,VWS V13.01,2014-01-05 09:07:00,
2014-01-05 04:12:00,22.1,19.1,30.26,West,270,0.0,1.0,88,0.00,,---,0.00,VWS V13.01,2014-01-05 09:12:00,
2014-01-05 04:17:00,22.1,19.1,30.26,West,269,0.0,1.0,88,0.00,,---,0.00,VWS V13.01,2014-01-05 09:17:00,
2014-01-05 04:22:00,22.2,19.5,30.26,West,270,0.0,1.0,89,0.00,,---,0.00,VWS V13.01,2014-01-05 09:22:00,
2014-01-05 04:27:00,22.3,19.3,30.26,West,270,0.0,1.0,88,0.00,,---,0.00,VWS V13.01,2014-01-05 09:27:00,
2014-01-05 04:33:00,22.3,19.3,30.25,West,269,0.0,0.0,88,0.00,,---,0.00,VWS V13.01,2014-01-05 09:33:00,
2014-01-05 04:38:00,22.3,19.3,30.25,West,270,0.0,0.0,88,0.00,,---,0.00,VWS V13.01,2014-01-05 09:38:00,
2014-01-05 04:43:00,22.4,19.4,30.25,West,270,0.0,0.0,88,0.00,,---,0.00,VWS V13.01,2014-01-05 09:43:00,
2014-01-05 04:48:00,22.5,19.8,30.25,West,270,0.0,0.0,89,0.00,,---,0.00,VWS V13.01,2014-01-05 09:48:00,
2014-01-05 04:53:00,22.6,19.9,30.25,West,270,0.0,0.0,89,0.00,,---,0.00,VWS V13.01,2014-01-05 09:53:00,
2014-01-05 04:58:00,22.9,19.9,30.25,West,270,0.0,0.0,88,0.00,,---,0.00,VWS V13.01,2014-01-05 09:58:00,
2014-01-05 05:03:00,22.9,19.9,30.25,West,270,0.0,0.0,88,0.00,,---,0.00,VWS V13.01,2014-01-05 10:03:00,
2014-01-05 05:08:00,23.0,21.8,30.25,West,269,0.0,0.0,95,0.00,,---,0.00,VWS V13.01,2014-01-05 10:08:00,
2014-01-05 05:13:00,23.1,20.1,30.25,West,270,0.0,0.0,88,0.00,,---,0.00,VWS V13.01,2014-01-05 10:13:00,
2014-01-05 05:18:00,23.1,20.1,30.24,West,269,0.0,0.0,88,0.00,,---,0.00,VWS V13.01,2014-01-05 10:18:00,
2014-01-05 05:23:00,23.2,20.2,30.24,West,269,0.0,0.0,88,0.00,,---,0.00,VWS V13.01,2014-01-05 10:23:00,
2014-01-05 05:28:00,23.2,20.2,30.24,West,270,0.0,0.0,88,0.00,,---,0.00,VWS V13.01,2014-01-05 10:28:00,
2014-01-05 05:33:00,23.2,20.2,30.23,West,269,0.0,0.0,88,0.00,,---,0.00,VWS V13.01,2014-01-05 10:33:00,
2014-01-05 05:38:00,23.2,20.2,30.24,West,270,0.0,0.0,88,0.00,,---,0.00,VWS V13.01,2014-01-05 10:38:00,
2014-01-05 05:43:00,23.2,19.9,30.24,West,269,0.0,0.0,87,0.00,,---,0.00,VWS V13.01,2014-01-05 10:43:00,
2014-01-05 05:48:00,23.2,19.9,30.24,West,270,0.0,0.0,87,0.00,,---,0.00,VWS V13.01,2014-01-05 10:48:00,
2014-01-05 05:53:00,23.3,19.7,30.24,West,270,0.0,0.0,86,0.00,,---,0.00,VWS V13.01,2014-01-05 10:53:00,
2014-01-05 05:58:00,23.4,19.8,30.24,West,269,0.0,0.0,86,0.00,,---,0.00,VWS V13.01,2014-01-05 10:58:00,
2014-01-05 06:04:00,23.5,19.9,30.25,West,270,0.0,0.0,86,0.00,,---,0.00,VWS V13.01,2014-01-05 11:04:00,
2014-01-05 06:09:00,23.5,19.9,30.24,West,270,0.0,0.0,86,0.00,,---,0.00,VWS V13.01,2014-01-05 11:09:00,
2014-01-05 06:14:00,23.4,19.8,30.24,West,269,0.0,0.0,86,0.00,,---,0.00,VWS V13.01,2014-01-05 11:14:00,
2014-01-05 06:19:00,23.4,19.6,30.24,West,270,0.0,0.0,85,0.00,,---,0.00,VWS V13.01,2014-01-05 11:19:00,
2014-01-05 06:24:00,23.4,19.6,30.24,West,270,0.0,0.0,85,0.00,,---,0.00,VWS V13.01,2014-01-05 11:24:00,
2014-01-05 06:29:00,23.3,19.7,30.24,West,269,0.0,0.0,86,0.00,,---,0.00,VWS V13.01,2014-01-05 11:29:00,
2014-01-05 06:34:00,23.3,19.7,30.24,West,270,0.0,0.0,86,0.00,,---,0.00,VWS V13.01,2014-01-05 11:34:00,
2014-01-05 06:39:00,23.4,19.8,30.24,West,269,0.0,0.0,86,0.00,,---,0.00,VWS V13.01,2014-01-05 11:39:00,
2014-01-05 06:44:00,23.5,19.9,30.24,West,269,0.0,0.0,86,0.00,,---,0.00,VWS V13.01,2014-01-05 11:44:00,
2014-01-05 06:49:00,23.5,19.9,30.24,West,270,0.0,0.0,86,0.00,,---,0.00,VWS V13.01,2014-01-05 11:49:00,
2014-01-05 06:54:00,23.5,19.9,30.24,West,270,0.0,0.0,86,0.00,,---,0.00,VWS V13.01,2014-01-05 11:54:00,
2014-01-05 06:59:00,23.5,19.9,30.24,West,270,0.0,0.0,86,0.00,,---,0.00,VWS V13.01,2014-01-05 11:59:00,
2014-01-05 07:04:00,23.3,20.0,30.24,West,269,0.0,0.0,87,0.00,,---,0.00,VWS V13.01,2014-01-05 12:04:00,
2014-01-05 07:09:00,23.0,19.7,30.24,West,270,0.0,0.0,87,0.00,,---,0.00,VWS V13.01,2014-01-05 12:09:00,
2014-01-05 07:14:00,22.8,19.5,30.25,West,270,0.0,0.0,87,0.00,,---,0.00,VWS V13.01,2014-01-05 12:14:00,
2014-01-05 07:19:00,22.6,19.0,30.24,West,270,0.0,0.0,86,0.00,,---,0.00,VWS V13.01,2014-01-05 12:19:00,
2014-01-05 07:24:00,22.3,18.8,30.24,West,269,0.0,0.0,86,0.00,,---,0.00,VWS V13.01,2014-01-05 12:24:00,
2014-01-05 07:29:00,22.0,18.5,30.24,West,269,0.0,0.0,86,0.00,,---,0.00,VWS V13.01,2014-01-05 12:29:00,
2014-01-05 07:35:00,21.7,18.2,30.24,West,270,0.0,0.0,86,0.00,,---,0.00,VWS V13.01,2014-01-05 12:35:00,
2014-01-05 07:40:00,21.6,18.1,30.24,West,270,0.0,0.0,86,0.00,,---,0.00,VWS V13.01,2014-01-05 12:40:00,
2014-01-05 07:45:00,20.9,16.6,30.24,West,270,0.0,1.0,83,0.00,,---,0.00,VWS V13.01,2014-01-05 12:45:00,
2014-01-05 07:50:00,20.2,16.4,30.24,West,269,0.0,1.0,85,0.00,,---,0.00,VWS V13.01,2014-01-05 12:50:00,
2014-01-05 07:55:00,19.9,16.4,30.24,West,270,0.0,1.0,86,0.00,,---,0.00,VWS V13.01,2014-01-05 12:55:00,
2014-01-05 08:00:00,19.7,15.9,30.24,West,269,0.0,0.0,85,0.00,,---,0.00,VWS V13.01,2014-01-05 13:00:00,
2014-01-05 08:05:00,19.1,15.6,30.24,West,270,0.0,0.0,86,0.00,,---,0.00,VWS V13.01,2014-01-05 13:05:00,
2014-01-05 08:10:00,18.3,14.8,30.24,West,269,0.0,0.0,86,0.00,,---,0.00,VWS V13.01,2014-01-05 13:10:00,
2014-01-05 08:15:00,17.9,14.9,30.24,West,270,0.0,0.0,88,0.00,,---,0.00,VWS V13.01,2014-01-05 13:15:00,
2014-01-05 08:20:00,17.7,15.0,30.24,West,270,0.0,0.0,89,0.00,,---,0.00,VWS V13.01,2014-01-05 13:20:00,
2014-01-05 08:26:00,17.5,14.8,30.24,West,269,0.0,0.0,89,0.00,,---,0.00,VWS V13.01,2014-01-05 13:26:00,
2014-01-05 08:31:00,17.5,14.8,30.24,West,270,0.0,0.0,89,0.00,,---,0.00,VWS V13.01,2014-01-05 13:31:00,
2014-01-05 08:36:00,17.9,15.7,30.24,West,270,0.0,0.0,91,0.00,,---,0.00,VWS V13.01,2014-01-05 13:36:00,
2014-01-05 08:41:00,18.6,16.4,30.24,West,270,0.0,0.0,91,0.00,,---,0.00,VWS V13.01,2014-01-05 13:41:00,
2014-01-05 08:46:00,18.8,16.6,30.24,West,270,0.0,0.0,91,0.00,,---,0.00,VWS V13.01,2014-01-05 13:46:00,
2014-01-05 08:51:00,19.2,17.0,30.24,West,270,0.0,0.0,91,0.00,,---,0.00,VWS V13.01,2014-01-05 13:51:00,
2014-01-05 08:56:00,19.8,17.6,30.23,West,270,0.0,0.0,91,0.00,,---,0.00,VWS V13.01,2014-01-05 13:56:00,
2014-01-05 09:01:00,20.3,17.8,30.23,West,270,0.0,0.0,90,0.00,,---,0.00,VWS V13.01,2014-01-05 14:01:00,
2014-01-05 09:06:00,20.9,18.4,30.23,West,269,0.0,0.0,90,0.00,,---,0.00,VWS V13.01,2014-01-05 14:06:00,
2014-01-05 09:11:00,21.4,18.9,30.23,West,269,0.0,0.0,90,0.00,,---,0.00,VWS V13.01,2014-01-05 14:11:00,
2014-01-05 09:16:00,22.8,19.2,30.22,West,270,0.0,1.0,86,0.00,,---,0.00,VWS V13.01,2014-01-05 14:16:00,
2014-01-05 09:21:00,23.4,19.6,30.22,West,269,0.0,1.0,85,0.00,,---,0.00,VWS V13.01,2014-01-05 14:21:00,
2014-01-05 09:26:00,23.6,19.5,30.22,West,270,0.0,1.0,84,0.00,,---,0.00,VWS V13.01,2014-01-05 14:26:00,
2014-01-05 09:31:00,23.9,19.5,30.22,West,269,0.0,0.0,83,0.00,,---,0.00,VWS V13.01,2014-01-05 14:31:00,
2014-01-05 09:37:00,24.2,19.5,30.22,West,270,0.0,0.0,82,0.00,,---,0.00,VWS V13.01,2014-01-05 14:37:00,
2014-01-05 09:42:00,24.6,20.2,30.21,West,270,0.0,0.0,83,0.00,,---,0.00,VWS V13.01,2014-01-05 14:42:00,
2014-01-05 09:47:00,25.2,20.2,30.20,West,270,0.0,0.0,81,0.00,,---,0.00,VWS V13.01,2014-01-05 14:47:00,
2014-01-05 09:52:00,25.9,20.6,30.20,West,270,0.0,1.0,80,0.00,,---,0.00,VWS V13.01,2014-01-05 14:52:00,
2014-01-05 09:57:00,26.3,20.7,30.19,West,270,0.0,1.0,79,0.00,,---,0.00,VWS V13.01,2014-01-05 14:57:00,
2014-01-05 10:02:00,26.7,21.1,30.19,West,270,0.0,0.0,79,0.00,,---,0.00,VWS V13.01,2014-01-05 15:02:00,
2014-01-05 10:07:00,27.5,21.9,30.19,West,270,0.0,0.0,79,0.00,,---,0.00,VWS V13.01,2014-01-05 15:07:00,
2014-01-05 10:12:00,28.7,22.1,30.19,West,270,0.0,0.0,76,0.00,,---,0.00,VWS V13.01,2014-01-05 15:12:00,
2014-01-05 10:17:00,29.2,22.0,30.18,West,270,0.0,0.0,74,0.00,,---,0.00,VWS V13.01,2014-01-05 15:17:00,
2014-01-05 10:22:00,29.1,21.5,30.18,West,270,0.0,1.0,73,0.00,,---,0.00,VWS V13.01,2014-01-05 15:22:00,
2014-01-05 10:27:00,29.0,22.1,30.18,West,269,0.0,1.0,75,0.00,,---,0.00,VWS V13.01,2014-01-05 15:27:00,
2014-01-05 10:32:00,29.1,21.9,30.18,West,270,0.0,0.0,74,0.00,,---,0.00,VWS V13.01,2014-01-05 15:32:00,
2014-01-05 10:37:00,29.3,22.4,30.17,West,270,0.0,0.0,75,0.00,,---,0.00,VWS V13.01,2014-01-05 15:37:00,
2014-01-05 10:43:00,29.4,23.1,30.18,West,269,0.0,0.0,77,0.00,,---,0.00,VWS V13.01,2014-01-05 15:43:00,
2014-01-05 10:48:00,29.4,22.5,30.17,West,270,0.0,0.0,75,0.00,,---,0.00,VWS V13.01,2014-01-05 15:48:00,
2014-01-05 10:53:00,29.6,23.0,30.18,West,269,0.0,0.0,76,0.00,,---,0.00,VWS V13.01,2014-01-05 15:53:00,
2014-01-05 10:58:00,29.6,23.6,30.17,West,270,0.0,0.0,78,0.00,,---,0.00,VWS V13.01,2014-01-05 15:58:00,
2014-01-05 11:03:00,29.8,24.7,30.16,West,270,0.0,0.0,81,0.00,,---,0.00,VWS V13.01,2014-01-05 16:03:00,
2014-01-05 11:08:00,30.1,24.4,30.16,West,270,0.0,1.0,79,0.00,,---,0.00,VWS V13.01,2014-01-05 16:08:00,
2014-01-05 11:13:00,30.3,24.0,30.15,West,270,0.0,1.0,77,0.00,,---,0.00,VWS V13.01,2014-01-05 16:13:00,
2014-01-05 11:18:00,30.5,24.5,30.14,West,270,0.0,1.0,78,0.00,,---,0.00,VWS V13.01,2014-01-05 16:18:00,
2014-01-05 11:23:00,30.7,24.7,30.14,West,270,0.0,1.0,78,0.00,,---,0.00,VWS V13.01,2014-01-05 16:23:00,
2014-01-05 11:28:00,31.0,25.6,30.13,West,270,0.0,1.0,80,0.00,,---,0.00,VWS V13.01,2014-01-05 16:28:00,
2014-01-05 11:33:00,31.2,25.5,30.13,West,270,0.0,0.0,79,0.00,,---,0.00,VWS V13.01,2014-01-05 16:33:00,
2014-01-05 11:38:00,31.2,25.5,30.12,West,270,0.0,0.0,79,0.00,,---,0.00,VWS V13.01,2014-01-05 16:38:00,
2014-01-05 11:43:00,31.2,24.8,30.12,West,269,0.0,0.0,77,0.00,,---,0.00,VWS V13.01,2014-01-05 16:43:00,
2014-01-05 11:48:00,31.4,24.1,30.11,West,270,0.0,0.0,74,0.00,,---,0.00,VWS V13.01,2014-01-05 16:48:00,
2014-01-05 11:53:00,31.4,23.4,30.11,West,269,0.0,0.0,72,0.00,,---,0.00,VWS V13.01,2014-01-05 16:53:00,
2014-01-05 11:58:00,31.6,24.6,30.10,West,270,0.0,0.0,75,0.00,,---,0.00,VWS V13.01,2014-01-05 16:58:00,
2014-01-05 12:03:00,31.8,25.1,30.10,West,269,0.0,0.0,76,0.00,,---,0.00,VWS V13.01,2014-01-05 17:03:00,
2014-01-05 12:08:00,32.0,23.3,30.09,West,270,0.0,1.0,70,0.00,,---,0.00,VWS V13.01,2014-01-05 17:08:00,
2014-01-05 12:14:00,32.4,23.7,30.09,West,270,0.0,1.0,70,0.00,,---,0.00,VWS V13.01,2014-01-05 17:14:00,
2014-01-05 12:19:00,32.6,24.6,30.08,West,269,0.0,1.0,72,0.00,,---,0.00,VWS V13.01,2014-01-05 17:19:00,
2014-01-05 12:24:00,32.6,23.9,30.07,West,270,0.0,1.0,70,0.00,,---,0.00,VWS V13.01,2014-01-05 17:24:00,
2014-01-05 12:29:00,32.8,24.1,30.07,West,270,0.0,1.0,70,0.00,,---,0.00,VWS V13.01,2014-01-05 17:29:00,
2014-01-05 12:34:00,33.0,24.0,30.06,West,269,0.0,0.0,69,0.00,,---,0.00,VWS V13.01,2014-01-05 17:34:00,
2014-01-05 12:39:00,33.2,23.8,30.06,West,270,0.0,0.0,68,0.00,,---,0.00,VWS V13.01,2014-01-05 17:39:00,
2014-01-05 12:44:00,33.2,24.5,30.05,West,270,0.0,0.0,70,0.00,,---,0.00,VWS V13.01,2014-01-05 17:44:00,
2014-01-05 12:49:00,33.2,24.1,30.05,West,269,0.0,0.0,69,0.00,,---,0.00,VWS V13.01,2014-01-05 17:49:00,
2014-01-05 12:54:00,33.2,23.5,30.04,West,270,0.0,0.0,67,0.00,,---,0.00,VWS V13.01,2014-01-05 17:54:00,
2014-01-05 12:59:00,33.2,23.8,30.04,West,270,0.0,1.0,68,0.00,,---,0.00,VWS V13.01,2014-01-05 17:59:00,
2014-01-05 13:04:00,33.2,24.1,30.03,West,270,0.0,0.0,69,0.01,,---,0.01,VWS V13.01,2014-01-05 18:04:00,
2014-01-05 13:09:00,33.3,25.3,30.03,West,269,0.0,0.0,72,0.01,,---,0.01,VWS V13.01,2014-01-05 18:09:00,
2014-01-05 13:14:00,33.2,24.1,30.03,West,270,0.0,0.0,69,0.01,,---,0.01,VWS V13.01,2014-01-05 18:14:00,
2014-01-05 13:19:00,33.2,23.8,30.03,West,270,0.0,0.0,68,0.01,,---,0.01,VWS V13.01,2014-01-05 18:19:00,
2014-01-05 13:24:00,33.3,23.9,30.02,West,269,0.0,0.0,68,0.01,,---,0.01,VWS V13.01,2014-01-05 18:24:00,
2014-01-05 13:29:00,33.4,24.0,30.02,West,270,0.0,0.0,68,0.01,,---,0.01,VWS V13.01,2014-01-05 18:29:00,
2014-01-05 13:34:00,33.5,24.4,30.01,West,269,0.0,0.0,69,0.01,,---,0.01,VWS V13.01,2014-01-05 18:34:00,
2014-01-05 13:39:00,33.5,24.8,30.00,West,270,0.0,1.0,70,0.01,,---,0.01,VWS V13.01,2014-01-05 18:39:00,
2014-01-05 13:45:00,33.5,24.8,30.01,West,270,0.0,1.0,70,0.01,,---,0.01,VWS V13.01,2014-01-05 18:45:00,
2014-01-05 13:50:00,33.5,24.8,30.00,West,270,0.0,1.0,70,0.01,,---,0.01,VWS V13.01,2014-01-05 18:50:00,
2014-01-05 13:55:00,33.5,24.8,29.99,West,269,0.0,1.0,70,0.01,,---,0.01,VWS V13.01,2014-01-05 18:55:00,
2014-01-05 14:00:00,33.7,25.0,29.99,West,270,0.0,0.0,70,0.01,,---,0.01,VWS V13.01,2014-01-05 19:00:00,
2014-01-05 14:05:00,33.8,25.1,29.99,West,269,0.0,1.0,70,0.01,,---,0.01,VWS V13.01,2014-01-05 19:05:00,
2014-01-05 14:10:00,34.0,24.9,29.98,West,270,0.0,1.0,69,0.01,,---,0.01,VWS V13.01,2014-01-05 19:10:00,
2014-01-05 14:15:00,34.2,24.4,29.97,West,270,3.0,5.0,67,0.01,,---,0.01,VWS V13.01,2014-01-05 19:15:00,
2014-01-05 14:20:00,34.3,25.2,29.97,West,270,4.0,5.0,69,0.01,,---,0.01,VWS V13.01,2014-01-05 19:20:00,
2014-01-05 14:25:00,34.3,25.5,29.97,West,270,0.0,5.0,70,0.01,,---,0.01,VWS V13.01,2014-01-05 19:25:00,
2014-01-05 14:30:00,34.4,26.0,29.96,West,269,0.0,2.0,71,0.01,,---,0.01,VWS V13.01,2014-01-05 19:30:00,
2014-01-05 14:35:00,34.4,26.0,29.95,West,270,2.0,2.0,71,0.00,,---,0.01,VWS V13.01,2014-01-05 19:35:00,
2014-01-05 14:40:00,34.4,26.0,29.95,West,270,4.0,5.0,71,0.00,,---,0.01,VWS V13.01,2014-01-05 19:40:00,
2014-01-05 14:45:00,34.4,26.0,29.94,West,270,1.0,5.0,71,0.00,,---,0.01,VWS V13.01,2014-01-05 19:45:00,
2014-01-05 14:50:00,34.4,26.0,29.94,West,270,0.0,5.0,71,0.00,,---,0.01,VWS V13.01,2014-01-05 19:50:00,
2014-01-05 14:55:00,34.4,26.0,29.93,West,270,0.0,5.0,71,0.00,,---,0.01,VWS V13.01,2014-01-05 19:55:00,
2014-01-05 15:00:00,34.6,25.8,29.93,West,269,2.0,2.0,70,0.00,,---,0.01,VWS V13.01,2014-01-05 20:00:00,
2014-01-05 15:06:00,34.6,26.2,29.92,West,270,4.0,6.0,71,0.00,,---,0.01,VWS V13.01,2014-01-05 20:06:00,
2014-01-05 15:11:00,34.4,26.3,29.92,West,269,1.0,6.0,72,0.00,,---,0.01,VWS V13.01,2014-01-05 20:11:00,
2014-01-05 15:16:00,34.4,26.0,29.92,West,270,0.0,6.0,71,0.00,,---,0.01,VWS V13.01,2014-01-05 20:16:00,
2014-01-05 15:21:00,34.6,26.5,29.91,West,270,0.0,6.0,72,0.00,,---,0.01,VWS V13.01,2014-01-05 20:21:00,
2014-01-05 15:26:00,34.4,26.7,29.91,West,270,0.0,6.0,73,0.00,,---,0.01,VWS V13.01,2014-01-05 20:26:00,
2014-01-05 15:31:00,34.4,27.0,29.90,West,270,0.0,0.0,74,0.01,,---,0.02,VWS V13.01,2014-01-05 20:31:00,
2014-01-05 15:36:00,34.4,26.3,29.90,West,269,0.0,0.0,72,0.01,,---,0.02,VWS V13.01,2014-01-05 20:36:00,
2014-01-05 15:41:00,34.6,26.5,29.89,West,270,0.0,1.0,72,0.01,,---,0.02,VWS V13.01,2014-01-05 20:41:00,
2014-01-05 15:46:00,34.6,26.9,29.89,West,269,0.0,1.0,73,0.01,,---,0.02,VWS V13.01,2014-01-05 20:46:00,
2014-01-05 15:51:00,34.8,27.0,29.89,West,269,0.0,1.0,73,0.01,,---,0.02,VWS V13.01,2014-01-05 20:51:00,
2014-01-05 15:56:00,34.8,26.7,29.88,West,270,0.0,1.0,72,0.01,,---,0.02,VWS V13.01,2014-01-05 20:56:00,
2014-01-05 16:01:00,34.9,26.8,29.88,West,269,0.0,0.0,72,0.01,,---,0.02,VWS V13.01,2014-01-05 21:01:00,
2014-01-05 16:06:00,35.0,27.2,29.87,West,270,0.0,0.0,73,0.01,,---,0.02,VWS V13.01,2014-01-05 21:06:00,
2014-01-05 16:11:00,34.9,27.5,29.87,West,270,0.0,0.0,74,0.01,,---,0.02,VWS V13.01,2014-01-05 21:11:00,
2014-01-05 16:16:00,34.8,27.7,29.86,West,269,0.0,1.0,75,0.01,,---,0.02,VWS V13.01,2014-01-05 21:16:00,
2014-01-05 16:21:00,34.7,27.3,29.86,West,270,0.0,1.0,74,0.01,,---,0.02,VWS V13.01,2014-01-05 21:21:00,
2014-01-05 16:26:00,34.6,27.8,29.85,West,270,5.0,6.0,76,0.01,,---,0.02,VWS V13.01,2014-01-05 21:26:00,
2014-01-05 16:31:00,34.4,28.0,29.84,West,270,4.0,5.0,77,0.00,,---,0.02,VWS V13.01,2014-01-05 21:31:00,
2014-01-05 16:37:00,34.4,28.0,29.83,West,269,6.0,7.0,77,0.00,,---,0.02,VWS V13.01,2014-01-05 21:37:00,
2014-01-05 16:42:00,34.3,28.2,29.82,West,270,5.0,7.0,78,0.00,,---,0.02,VWS V13.01,2014-01-05 21:42:00,
2014-01-05 16:47:00,34.2,28.1,29.82,NW,306,5.0,7.0,78,0.00,,---,0.02,VWS V13.01,2014-01-05 21:47:00,
2014-01-05 16:52:00,34.7,27.9,29.81,NNE,12,4.0,9.0,76,0.00,,---,0.02,VWS V13.01,2014-01-05 21:52:00,
2014-01-05 16:57:00,35.0,29.2,29.81,NNE,15,0.0,9.0,79,0.00,,---,0.02,VWS V13.01,2014-01-05 21:57:00,
2014-01-05 17:02:00,34.4,28.6,29.82,NNE,15,0.0,0.0,79,0.00,,---,0.02,VWS V13.01,2014-01-05 22:02:00,
2014-01-05 17:07:00,33.9,28.7,29.81,NNE,15,0.0,0.0,81,0.00,,---,0.02,VWS V13.01,2014-01-05 22:07:00,
2014-01-05 17:12:00,33.4,29.1,29.81,NNE,15,0.0,0.0,84,0.00,,---,0.02,VWS V13.01,2014-01-05 22:12:00,
2014-01-05 17:17:00,33.2,29.2,29.80,NNE,15,0.0,0.0,85,0.00,,---,0.02,VWS V13.01,2014-01-05 22:17:00,
2014-01-05 17:22:00,33.0,29.0,29.79,NNE,15,0.0,0.0,85,0.00,,---,0.02,VWS V13.01,2014-01-05 22:22:00,
2014-01-05 17:27:00,32.8,29.1,29.78,NNE,15,0.0,0.0,86,0.00,,---,0.02,VWS V13.01,2014-01-05 22:27:00,
2014-01-05 17:32:00,32.7,29.0,29.78,NNE,15,0.0,0.0,86,0.00,,---,0.02,VWS V13.01,2014-01-05 22:32:00,
2014-01-05 17:37:00,32.6,28.9,29.77,NNE,15,0.0,0.0,86,0.00,,---,0.02,VWS V13.01,2014-01-05 22:37:00,
2014-01-05 17:42:00,32.7,29.3,29.76,NNE,15,0.0,0.0,87,0.00,,---,0.02,VWS V13.01,2014-01-05 22:42:00,
2014-01-05 17:47:00,33.4,30.5,29.75,NNE,15,0.0,4.0,89,0.00,,---,0.02,VWS V13.01,2014-01-05 22:47:00,
2014-01-05 17:52:00,33.5,29.8,29.75,NNE,15,0.0,4.0,86,0.00,,---,0.02,VWS V13.01,2014-01-05 22:52:00,
2014-01-05 17:58:00,35.6,32.4,29.75,East,91,1.0,12.0,88,0.00,,---,0.02,VWS V13.01,2014-01-05 22:58:00,
2014-01-05 18:03:00,35.9,31.8,29.75,East,92,0.0,2.0,85,0.00,,---,0.02,VWS V13.01,2014-01-05 23:03:00,
2014-01-05 18:08:00,35.9,31.5,29.74,East,91,0.0,3.0,84,0.00,,---,0.02,VWS V13.01,2014-01-05 23:08:00,
2014-01-05 18:13:00,36.0,32.2,29.73,East,91,3.0,6.0,86,0.00,,---,0.02,VWS V13.01,2014-01-05 23:13:00,
2014-01-05 18:18:00,36.4,32.3,29.73,East,96,0.0,7.0,85,0.00,,---,0.02,VWS V13.01,2014-01-05 23:18:00,
2014-01-05 18:23:00,37.5,33.4,29.73,East,88,0.0,8.0,85,0.00,,---,0.02,VWS V13.01,2014-01-05 23:23:00,
2014-01-05 18:28:00,37.4,33.0,29.73,East,88,4.0,8.0,84,0.00,,---,0.02,VWS V13.01,2014-01-05 23:28:00,
2014-01-05 18:33:00,36.9,32.5,29.73,East,90,4.0,6.0,84,0.00,,---,0.02,VWS V13.01,2014-01-05 23:33:00,
2014-01-05 18:38:00,36.9,33.4,29.72,East,90,0.0,6.0,87,0.00,,---,0.02,VWS V13.01,2014-01-05 23:38:00,
2014-01-05 18:43:00,36.8,33.0,29.72,East,90,0.0,6.0,86,0.01,,---,0.03,VWS V13.01,2014-01-05 23:43:00,
2014-01-05 18:48:00,37.1,33.6,29.72,East,90,0.0,6.0,87,0.01,,---,0.03,VWS V13.01,2014-01-05 23:48:00,
2014-01-05 18:53:00,37.3,34.6,29.71,NNE,31,0.0,11.0,90,0.01,,---,0.03,VWS V13.01,2014-01-05 23:53:00,
2014-01-05 18:58:00,37.0,33.8,29.71,NNE,30,0.0,11.0,88,0.01,,---,0.03,VWS V13.01,2014-01-05 23:58:00,
2014-01-05 19:03:00,36.7,33.5,29.70,NNE,30,0.0,0.0,88,0.01,,---,0.03,VWS V13.01,2014-01-06 00:03:00,
2014-01-05 19:08:00,36.4,33.8,29.69,NNE,31,0.0,1.0,90,0.01,,---,0.03,VWS V13.01,2014-01-06 00:08:00,
2014-01-05 19:13:00,36.0,33.4,29.68,NNE,31,1.0,1.0,90,0.01,,---,0.03,VWS V13.01,2014-01-06 00:13:00,
2014-01-05 19:18:00,39.1,37.5,29.68,NNE,21,0.0,14.0,94,0.01,,---,0.03,VWS V13.01,2014-01-06 00:18:00,
2014-01-05 19:24:00,41.0,38.6,29.68,North,350,0.0,14.0,91,0.01,,---,0.04,VWS V13.01,2014-01-06 00:24:00,
2014-01-05 19:29:00,42.2,39.2,29.66,North,9,2.0,18.0,89,0.02,,---,0.04,VWS V13.01,2014-01-06 00:29:00,
2014-01-05 19:34:00,42.7,39.4,29.66,ENE,58,4.0,13.0,88,0.02,,---,0.04,VWS V13.01,2014-01-06 00:34:00,
2014-01-05 19:39:00,42.9,39.3,29.66,NNW,336,6.0,13.0,87,0.02,,---,0.04,VWS V13.01,2014-01-06 00:39:00,
2014-01-05 19:44:00,42.8,39.2,29.65,NNW,336,6.0,13.0,87,0.02,,---,0.04,VWS V13.01,2014-01-06 00:44:00,
2014-01-05 19:49:00,42.5,38.9,29.63,NE,49,0.0,14.0,87,0.03,,---,0.05,VWS V13.01,2014-01-06 00:49:00,
2014-01-05 19:54:00,42.5,39.2,29.63,North,355,0.0,14.0,88,0.03,,---,0.05,VWS V13.01,2014-01-06 00:54:00,
2014-01-05 19:59:00,42.3,39.0,29.63,North,5,6.0,14.0,88,0.03,,---,0.05,VWS V13.01,2014-01-06 00:59:00,
2014-01-05 20:04:00,42.0,38.7,29.63,North,355,4.0,8.0,88,0.02,,---,0.05,VWS V13.01,2014-01-06 01:04:00,
2014-01-05 20:09:00,42.3,39.3,29.62,NW,304,6.0,21.0,89,0.02,,---,0.05,VWS V13.01,2014-01-06 01:09:00,
2014-01-05 20:14:00,42.4,39.1,29.61,NW,325,4.0,21.0,88,0.02,,---,0.05,VWS V13.01,2014-01-06 01:14:00,
2014-01-05 20:19:00,42.6,39.3,29.60,WNW,294,4.0,21.0,88,0.02,,---,0.05,VWS V13.01,2014-01-06 01:19:00,
2014-01-05 20:24:00,42.6,39.3,29.60,West,278,3.0,21.0,88,0.02,,---,0.05,VWS V13.01,2014-01-06 01:24:00,
2014-01-05 20:29:00,42.4,39.1,29.59,NNW,348,12.0,21.0,88,0.02,,---,0.05,VWS V13.01,2014-01-06 01:29:00,
2014-01-05 20:35:00,42.3,39.0,29.59,NE,42,0.0,16.0,88,0.01,,---,0.05,VWS V13.01,2014-01-06 01:35:00,
2014-01-05 20:40:00,42.3,39.0,29.58,West,274,0.0,16.0,88,0.01,,---,0.05,VWS V13.01,2014-01-06 01:40:00,
2014-01-05 20:45:00,42.2,38.9,29.57,ENE,74,9.0,16.0,88,0.01,,---,0.05,VWS V13.01,2014-01-06 01:45:00,
2014-01-05 20:50:00,42.3,39.3,29.55,ENE,65,4.0,16.0,89,0.01,,---,0.05,VWS V13.01,2014-01-06 01:50:00,
2014-01-05 20:55:00,42.2,38.9,29.55,NNE,30,8.0,16.0,88,0.01,,---,0.05,VWS V13.01,2014-01-06 01:55:00,
2014-01-05 21:00:00,42.1,38.8,29.54,ENE,59,5.0,9.0,88,0.01,,---,0.05,VWS V13.01,2014-01-06 02:00:00,
2014-01-05 21:05:00,41.9,38.6,29.53,ENE,78,7.0,10.0,88,0.00,,---,0.05,VWS V13.01,2014-01-06 02:05:00,
2014-01-05 21:10:00,41.8,38.8,29.53,ENE,66,2.0,10.0,89,0.00,,---,0.05,VWS V13.01,2014-01-06 02:10:00,
2014-01-05 21:15:00,42.0,39.0,29.54,NNE,26,4.0,10.0,89,0.00,,---,0.05,VWS V13.01,2014-01-06 02:15:00,
2014-01-05 21:20:00,41.8,38.2,29.53,North,360,1.0,10.0,87,0.00,,---,0.05,VWS V13.01,2014-01-06 02:20:00,
2014-01-05 21:26:00,42.0,39.0,29.53,NNW,344,4.0,10.0,89,0.00,,---,0.05,VWS V13.01,2014-01-06 02:26:00,
2014-01-05 21:31:00,42.3,39.3,29.52,NNE,16,3.0,7.0,89,0.00,,---,0.05,VWS V13.01,2014-01-06 02:31:00,
2014-01-05 21:36:00,42.5,39.5,29.53,NE,41,1.0,12.0,89,0.00,,---,0.05,VWS V13.01,2014-01-06 02:36:00,
2014-01-05 21:41:00,42.7,39.4,29.52,NE,34,0.0,12.0,88,0.00,,---,0.05,VWS V13.01,2014-01-06 02:41:00,
2014-01-05 21:46:00,42.5,39.5,29.51,West,264,6.0,13.0,89,0.00,,---,0.05,VWS V13.01,2014-01-06 02:46:00,
2014-01-05 21:51:00,42.1,39.1,29.51,WNW,294,6.0,13.0,89,0.01,,---,0.06,VWS V13.01,2014-01-06 02:51:00,
2014-01-05 21:56:00,41.7,39.0,29.51,WNW,291,9.0,13.0,90,0.02,,---,0.07,VWS V13.01,2014-01-06 02:56:00,
2014-01-05 22:01:00,41.9,39.5,29.50,WNW,298,6.0,9.0,91,0.03,,---,0.08,VWS V13.01,2014-01-06 03:01:00,
2014-01-05 22:06:00,41.5,39.1,29.50,West,279,7.0,11.0,91,0.04,,---,0.09,VWS V13.01,2014-01-06 03:06:00,
2014-01-05 22:11:00,41.1,38.7,29.50,WNW,291,6.0,11.0,91,0.05,,---,0.10,VWS V13.01,2014-01-06 03:11:00,
2014-01-05 22:16:00,41.4,39.2,29.51,West,276,6.0,11.0,92,0.06,,---,0.11,VWS V13.01,2014-01-06 03:16:00,
2014-01-05 22:21:00,41.4,39.2,29.49,West,277,4.0,11.0,92,0.08,,---,0.13,VWS V13.01,2014-01-06 03:21:00,
2014-01-05 22:26:00,41.4,39.5,29.49,NW,321,10.0,11.0,93,0.09,,---,0.15,VWS V13.01,2014-01-06 03:26:00,
2014-01-05 22:31:00,41.4,39.2,29.48,NW,325,0.0,7.0,92,0.11,,---,0.16,VWS V13.01,2014-01-06 03:31:00,
2014-01-05 22:36:00,42.0,40.1,29.48,West,263,4.0,13.0,93,0.11,,---,0.16,VWS V13.01,2014-01-06 03:36:00,
2014-01-05 22:41:00,42.2,40.0,29.47,West,271,8.0,16.0,92,0.12,,---,0.17,VWS V13.01,2014-01-06 03:41:00,
2014-01-05 22:46:00,41.8,39.4,29.47,West,272,0.0,16.0,91,0.13,,---,0.18,VWS V13.01,2014-01-06 03:46:00,
2014-01-05 22:52:00,41.8,39.7,29.47,West,275,0.0,16.0,92,0.14,,---,0.19,VWS V13.01,2014-01-06 03:52:00,
2014-01-05 22:57:00,40.9,38.5,29.45,West,275,0.0,16.0,91,0.15,,---,0.20,VWS V13.01,2014-01-06 03:57:00,
2014-01-05 23:02:00,40.1,38.0,29.46,West,275,0.0,5.0,92,0.15,,---,0.22,VWS V13.01,2014-01-06 04:02:00,
2014-01-05 23:07:00,39.2,37.3,29.45,West,275,5.0,5.0,93,0.16,,---,0.23,VWS V13.01,2014-01-06 04:07:00,
2014-01-05 23:12:00,40.2,38.9,29.44,West,278,0.0,9.0,95,0.18,,---,0.25,VWS V13.01,2014-01-06 04:12:00,
2014-01-05 23:17:00,40.0,38.4,29.43,West,267,0.0,9.0,94,0.20,,---,0.27,VWS V13.01,2014-01-06 04:17:00,
2014-01-05 23:22:00,39.8,38.2,29.43,SSE,168,0.0,10.0,94,0.21,,---,0.28,VWS V13.01,2014-01-06 04:22:00,
2014-01-05 23:27:00,39.5,38.2,29.43,SSE,165,0.0,10.0,95,0.21,,---,0.28,VWS V13.01,2014-01-06 04:27:00,
2014-01-05 23:32:00,40.4,39.1,29.42,North,10,0.0,7.0,95,0.14,,---,0.29,VWS V13.01,2014-01-06 04:32:00,
2014-01-05 23:37:00,40.3,39.0,29.41,North,10,0.0,7.0,95,0.15,,---,0.30,VWS V13.01,2014-01-06 04:37:00,
2014-01-05 23:42:00,39.6,38.0,29.41,North,10,0.0,7.0,94,0.15,,---,0.31,VWS V13.01,2014-01-06 04:42:00,
2014-01-05 23:47:00,40.2,38.9,29.40,NNW,335,0.0,10.0,95,0.16,,---,0.31,VWS V13.01,2014-01-06 04:47:00,
2014-01-05 23:52:00,40.2,38.9,29.38,NNW,335,0.0,10.0,95,0.16,,---,0.32,VWS V13.01,2014-01-06 04:52:00,
2014-01-05 23:57:00,40.2,38.9,29.37,NNW,334,0.0,10.0,95,0.17,,---,0.32,VWS V13.01,2014-01-06 04:57:00,